Temp
75 74 74 74 76 76 76 76 77 76 75 76 76 76 73 72 69 66 65 66 68 71 73 70 72 74 74 72 71 69 72 66 64 70 69 68 69 58 54 53 55 54 53 54 53 54 54 55 55 56 57 58 59 58 58 57 57 56 56 57 57 57 55 54 54 55 56 58 58 56 56 56 56 56
73 73 73 74 74 76 73 74 73 74 73 74 75 75 76 75 71 70 67 67 70 69 71 74 72 72 73 72 70 71 71 61 64 69 69 69 68 57 53 53 52 52 52 52 51 52 53 54 55 56 56 57 57 57 57 56 56 55 56 56 55 54 54 54 54 55 56 56 56 56 56 56 56 55
72 72 71 73 73 72 72 72 72 73 73 73 74 75 75 75 73 71 70 67 69 72 66 71 75 72 72 74 71 71 73 66 65 68 69 71 61 56 60 53 54 53 52 51 52 53 53 52 53 53 54 56 57 57 56 56 54 54 54 53 53 53 53 53 54 55 56 57 57 56 56 55 55 55
72 72 72 72 73 72 72 72 72 72 73 73 74 74 73 73 72 71 70 69 66 69 69 69 71 72 69 70 70 71 72 67 60 70 70 69 61 67 70 54 55 54 52 51 51 51 51 50 52 53 54 55 56 56 55 53 52 52 52 51 52 51 52 52 53 55 56 56 56 56 55 54 54 54
72 72 73 73 72 72 71 72 71 73 72 72 72 73 73 72 72 71 70 69 65 65 68 68 68 69 70 70 72 72 70 70 71 67 71 69 69 70 70 69 55 54 53 52 51 50 50 50 52 53 53 53 52 53 50 50 50 51 51 50 50 50 51 52 52 53 54 55 55 55 54 53 53 53
72 71 72 72 71 71 71 71 73 73 72 72 72 72 72 72 72 72 71 71 67 62 65 67 71 67 69 69 71 68 67 68 69 69 71 71 72 71 70 72 68 53 55 52 51 50 49 49 50 50 50 49 49 50 49 49 49 50 50 48 47 49 50 51 52 53 54 54 54 53 52 52 52 52
72 70 71 71 70 69 69 69 71 71 71 73 72 72 73 72 72 73 73 71 68 64 64 67 67 67 68 68 70 71 70 69 70 70 71 70 70 71 69 69 71 53 54 52 51 50 50 50 50 50 49 49 49 49 49 49 49 48 49 48 48 49 50 50 50 52 53 53 52 52 52 52 52 52
71 71 70 70 69 69 68 69 69 70 70 70 71 70 71 71 70 71 70 70 70 67 64 66 70 68 66 67 72 72 71 70 68 69 71 71 69 70 71 70 70 63 56 54 52 51 51 51 51 50 50 50 50 49 49 49 48 49 48 48 49 49 49 49 49 49 50 50 50 50 50 51 51 52
71 70 70 70 69 69 68 67 68 69 68 71 70 70 71 70 68 67 67 69 70 68 65 65 69 68 69 70 70 72 70 70 69 70 69 70 71 69 70 70 70 61 55 53 52 52 52 52 52 50 50 50 50 50 49 49 49 49 49 49 49 49 49 49 49 49 49 49 49 49 50 50 50 51
71 70 71 70 70 69 67 67 68 68 67 69 68 68 69 68 65 64 67 69 69 68 67 66 64 66 66 66 67 70 69 66 67 68 69 69 69 68 68 69 70 70 70 69 68 59 57 54 53 53 53 52 51 50 50 50 50 50 50 50 49 49 48 48 48 48 48 48 49 49 49 48 49 50
72 71 71 70 69 69 69 67 67 67 67 67 67 67 65 64 61 65 68 69 68 67 66 66 66 65 66 66 65 68 68 67 67 65 65 66 69 69 67 67 70 70 69 65 57 59 59 57 61 58 54 53 52 51 51 52 52 51 50 49 48 48 47 47 47 48 48 49 48 47 47 46 47 48
71 71 71 70 70 70 70 69 68 67 66 67 66 66 66 64 64 66 67 67 67 66 66 66 66 66 65 65 67 68 66 64 64 66 64 62 64 66 67 68 67 68 68 67 69 63 60 60 59 55 55 54 52 53 54 56 55 53 51 50 49 49 48 47 47 48 48 48 48 47 46 47 47 47
71 71 70 71 71 70 66 61 63 63 63 66 65 65 66 65 66 67 67 67 67 66 66 65 66 66 65 65 64 63 63 63 64 65 64 63 65 66 66 68 70 68 66 67 67 67 68 67 67 69 69 70 64 64 58 60 58 56 52 50 49 48 48 48 48 48 48 48 48 47 47 47 46 46
69 70 70 69 62 58 57 56 53 51 55 58 64 67 66 65 66 66 66 66 67 65 64 65 64 63 63 64 63 63 64 65 65 63 63 62 64 64 64 66 68 69 66 64 63 66 69 67 67 69 68 69 69 69 70 69 61 55 50 49 49 48 48 48 48 48 47 47 47 47 46 46 46 45
68 68 70 68 61 60 57 58 49 49 50 51 51 56 58 60 66 67 64 65 66 64 64 66 64 64 63 63 65 64 65 64 63 63 63 63 63 62 60 60 65 69 66 64 63 64 68 68 66 68 68 69 69 69 68 57 54 52 50 49 49 49 48 48 48 47 47 47 46 46 46 45 45 46
68 68 67 67 65 65 65 65 60 54 48 47 47 48 49 48 43 45 59 64 62 62 64 64 64 64 64 64 64 64 64 64 63 63 63 62 62 61 60 61 60 66 68 64 62 62 67 68 67 66 68 69 69 68 60 53 51 50 50 50 49 49 48 48 48 47 47 47 46 46 45 45 45 45
68 67 66 66 65 66 59 62 64 63 59 48 45 47 46 45 47 45 41 43 55 64 65 64 63 65 65 63 64 65 64 64 62 63 63 63 63 62 61 62 62 64 67 64 62 61 65 67 66 66 68 69 68 68 60 56 53 52 51 50 49 49 48 48 48 48 47 47 47 46 46 46 45 45
68 67 66 65 64 65 63 64 64 64 62 60 58 58 61 63 54 43 42 44 41 50 63 65 64 65 66 64 65 65 64 62 61 62 62 62 62 61 60 62 63 65 68 64 62 60 65 67 65 65 67 69 68 68 61 53 53 51 50 50 49 49 49 48 47 47 47 47 46 45 45 45 45 45
67 67 67 66 65 65 63 65 63 64 62 61 60 60 61 63 63 62 61 60 61 63 63 66 66 66 66 65 65 65 65 64 63 63 62 61 61 61 63 63 65 67 70 68 63 58 63 66 64 65 66 68 68 68 60 56 53 52 51 50 50 49 49 48 47 47 47 47 46 45 44 44 44 44
68 68 67 66 66 65 64 57 50 56 63 62 61 60 62 63 63 63 58 51 56 59 64 67 67 66 57 49 58 57 61 65 64 64 65 64 62 61 61 62 65 65 69 69 64 60 61 65 63 64 67 67 66 67 68 59 55 54 53 52 51 50 49 48 47 47 47 47 46 45 44 44 44 44
68 67 68 68 67 65 66 53 46 48 53 62 61 61 61 61 62 61 59 43 41 41 42 40 40 39 40 43 41 40 40 52 56 62 61 61 64 62 60 61 62 63 66 68 66 62 60 64 63 62 65 65 64 66 67 68 59 55 53 51 50 49 48 48 48 48 47 47 45 44 44 44 44 45
68 67 60 64 67 65 65 46 46 44 55 62 62 62 61 60 59 61 63 61 56 38 39 40 38 39 40 38 37 39 40 38 46 60 59 62 63 60 61 59 61 63 66 66 65 61 61 63 64 62 64 64 66 66 67 66 65 59 58 57 55 53 50 49 49 48 48 47 45 44 44 45 45 50
67 67 61 58 61 64 56 42 44 44 54 62 62 62 61 60 59 60 63 61 60 59 60 60 59 56 50 55 60 60 42 41 47 58 61 63 62 60 61 60 61 60 63 65 65 60 60 60 63 62 60 58 63 66 66 66 67 68 68 67 68 56 53 51 49 49 49 47 45 45 46 45 45 50
66 66 65 58 48 47 42 43 42 44 47 61 63 62 61 60 59 63 64 63 63 62 62 63 62 62 63 63 63 64 61 55 57 59 62 63 63 61 61 61 61 59 61 66 65 61 61 62 61 64 61 56 53 62 65 65 66 67 67 67 67 60 58 57 57 55 53 50 45 47 46 45 45 48
65 65 65 65 50 41 42 42 42 43 44 48 63 62 63 63 61 60 64 62 56 63 63 63 62 63 64 64 65 64 65 64 63 62 63 64 64 63 61 61 61 62 64 66 56 64 59 61 60 61 61 61 60 59 62 64 66 66 66 67 66 67 67 66 62 67 57 56 49 47 46 44 45 45
66 65 65 66 52 41 41 42 42 42 44 42 59 63 49 42 47 62 64 63 61 62 63 64 63 64 64 65 65 65 66 66 65 66 65 65 65 65 65 63 61 60 61 64 50 63 61 59 60 59 60 58 58 60 59 61 64 65 67 67 66 66 66 65 65 65 65 65 65 55 50 44 46 44
66 67 66 63 46 42 40 41 41 42 42 44 56 47 40 42 44 52 63 62 62 62 63 63 63 63 64 64 65 65 66 67 67 68 67 67 67 66 66 66 66 65 66 67 68 66 63 61 62 59 58 59 57 59 59 58 60 65 66 66 65 66 66 66 64 64 65 65 63 53 50 47 45 45
68 66 65 59 42 42 41 40 41 41 42 52 47 43 40 39 45 61 62 63 62 61 62 61 62 63 65 66 66 66 67 68 68 68 68 67 67 67 66 67 66 68 68 68 68 68 66 63 62 63 61 59 57 56 56 61 61 63 62 64 65 65 66 65 65 63 64 64 63 62 60 55 50 47
66 56 48 42 41 42 41 40 40 41 41 42 44 41 39 46 61 60 62 62 61 61 60 62 62 64 65 66 67 68 68 68 68 66 66 66 66 67 67 67 66 66 66 66 66 67 69 65 62 63 62 61 58 59 58 57 59 61 62 61 61 63 64 65 64 64 63 63 63 62 59 50 46 44
47 43 43 41 41 41 43 48 52 54 52 42 41 39 43 58 61 62 61 61 61 61 62 62 62 64 67 67 67 67 67 66 65 65 65 65 65 66 66 66 67 69 69 71 72 71 70 68 64 63 61 61 61 54 59 57 58 62 61 61 61 63 64 64 64 64 62 61 62 62 63 53 46 44
56 49 49 50 45 47 44 46 46 49 48 49 49 54 55 59 62 62 62 62 62 61 62 62 64 66 67 68 67 65 64 64 65 66 65 65 65 65 66 65 64 65 68 71 72 71 70 68 66 64 60 60 60 53 60 60 59 61 62 62 61 57 61 63 63 62 62 62 63 64 63 60 51 46
61 58 48 47 53 53 52 54 57 58 59 58 55 59 60 60 61 58 54 55 62 62 63 64 65 65 66 65 66 65 65 66 66 67 65 64 64 65 65 63 63 65 66 68 69 69 62 68 67 66 64 59 52 54 58 61 60 60 60 61 61 62 62 61 61 61 61 62 62 62 62 60 53 48
60 58 58 57 56 56 54 51 57 58 59 59 60 60 61 62 62 62 62 60 60 61 62 62 63 63 64 64 65 65 65 65 66 67 66 65 64 65 65 63 62 63 64 65 66 67 69 68 68 66 66 65 65 57 54 57 60 61 60 60 60 60 61 62 61 60 61 60 59 60 60 60 55 50
58 58 58 58 55 57 57 57 57 59 60 61 61 61 54 62 63 62 62 62 62 62 61 62 62 62 62 63 65 65 64 65 66 66 59 64 65 63 63 62 63 65 64 65 65 66 67 67 67 67 67 63 68 67 59 53 57 60 60 60 60 59 60 61 61 61 60 60 59 58 58 60 55 52
57 56 56 57 59 58 59 58 58 59 60 58 60 61 61 62 62 59 62 63 60 58 55 58 61 61 61 62 64 63 63 64 65 66 66 65 64 64 63 62 63 64 64 64 64 66 66 65 65 64 64 64 64 67 58 61 60 53 59 59 59 59 58 59 60 60 60 60 61 56 57 58 57 56
57 59 59 58 60 60 58 58 59 61 62 62 62 62 58 58 60 61 58 61 63 62 61 55 57 60 58 63 61 63 60 60 62 62 62 64 65 64 65 65 65 64 64 64 64 66 66 65 64 61 59 59 58 56 59 52 51 60 55 55 58 58 58 59 59 60 60 59 59 58 53 55 56 55
55 58 61 61 62 61 56 61 62 62 63 64 63 63 62 60 61 63 63 63 62 59 60 60 59 57 59 58 58 56 57 55 58 59 61 63 63 63 62 60 60 64 64 66 66 66 65 64 64 62 59 56 54 53 54 62 50 48 60 53 54 57 57 57 57 57 59 58 58 58 57 57 56 55
54 59 61 61 62 63 63 62 62 62 63 64 64 64 64 64 64 64 65 63 60 58 60 60 59 59 60 58 57 54 58 58 60 60 58 62 60 59 61 62 63 64 65 65 65 65 66 65 64 63 60 55 54 53 53 56 58 56 49 57 55 55 57 56 51 51 53 58 56 58 59 57 57 57
58 59 59 59 62 64 64 62 63 63 64 64 64 63 64 65 67 65 64 61 62 61 61 61 60 59 56 60 56 54 53 57 56 58 56 61 62 62 62 63 62 65 64 62 64 65 65 64 65 63 61 57 53 54 55 55 56 60 52 44 56 55 51 54 51 54 54 51 55 58 59 61 59 49
58 57 58 61 63 64 64 65 65 66 65 64 65 65 65 63 65 65 64 60 60 61 62 60 57 56 57 53 54 56 58 59 59 59 59 60 59 60 62 61 62 62 55 59 57 62 64 64 64 62 61 59 56 60 60 58 59 62 59 51 42 52 56 55 50 49 50 53 55 54 53 56 54 57
57 59 61 63 64 64 66 67 66 66 65 65 65 59 65 65 65 64 64 63 59 60 58 57 57 58 54 56 56 57 57 58 59 59 57 56 56 57 56 53 59 60 59 52 59 58 62 67 56 41 53 61 58 64 60 58 55 58 58 60 43 38 46 49 55 53 48 51 54 51 51 51 53 53
59 60 61 63 65 65 65 65 67 66 65 65 64 64 64 64 63 55 61 54 62 53 57 57 57 56 57 58 58 57 57 57 58 58 57 58 59 58 55 56 59 59 58 58 57 61 66 67 59 58 64 61 61 57 55 54 53 56 57 60 61 47 38 40 44 44 53 53 48 49 49 51 53 50
61 62 62 64 65 65 66 63 62 63 64 64 63 64 65 60 60 58 58 58 57 56 57 59 59 59 59 60 60 59 58 57 55 55 55 56 57 58 59 59 57 58 61 57 63 60 64 66 66 65 59 60 60 57 55 54 55 56 56 59 57 59 59 47 40 41 42 41 42 45 49 46 48 44
61 61 64 64 63 63 61 65 63 63 64 64 64 64 62 60 57 59 59 58 58 57 57 59 60 60 59 60 60 60 60 60 58 54 56 56 57 57 58 58 58 58 57 60 60 61 56 55 62 62 59 59 61 59 55 53 56 56 57 56 55 56 56 59 55 41 39 38 39 39 36 38 40 39
58 60 62 62 64 62 62 64 64 64 65 64 63 62 59 60 58 59 58 57 57 57 57 58 59 60 60 60 60 59 59 54 57 58 59 59 59 58 58 58 60 59 59 59 60 59 60 61 62 62 60 61 60 58 55 54 54 54 56 53 53 55 58 56 56 56 58 57 45 39 40 40 41 38
MSLP
1019.11 1019.19 1019.35 1019.43 1019.27 1019.19 1019.35 1019.63 1019.51 1019.75 1019.87 1019.99 1019.95 1019.95 1020.35 1020.55 1020.87 1021.51 1021.83 1021.75 1021.71 1021.67 1021.87 1022.31 1022.43 1022.51 1022.67 1022.87 1023.15 1023.43 1023.19 1023.63 1023.91 1023.59 1023.51 1023.59 1023.51 1023.95 1024.23 1024.27 1024.19 1024.07 1023.99 1023.87 1023.71 1023.55 1023.35 1023.19 1023.03 1022.87 1022.63 1022.35 1022.11 1021.87 1021.67 1021.47 1021.27 1021.11 1020.91 1020.67 1020.39 1020.19 1019.99 1019.75 1019.51 1019.23 1018.91 1018.55 1018.15 1017.83 1017.51 1017.15 1016.79 1016.51
1019.07 1019.19 1019.31 1019.35 1019.43 1019.19 1019.67 1019.75 1019.91 1019.99 1020.07 1020.11 1020.03 1020.03 1019.87 1019.99 1020.59 1020.63 1021.15 1021.03 1021.11 1021.47 1021.75 1021.63 1021.95 1022.51 1022.55 1022.79 1023.07 1023.03 1023.03 1023.71 1023.83 1023.55 1023.39 1023.31 1023.39 1023.83 1023.99 1024.03 1023.99 1023.91 1023.79 1023.67 1023.55 1023.39 1023.19 1023.07 1022.87 1022.67 1022.47 1022.23 1021.95 1021.75 1021.51 1021.31 1021.11 1020.91 1020.67 1020.47 1020.23 1020.03 1019.79 1019.55 1019.27 1018.99 1018.67 1018.31 1017.91 1017.59 1017.19 1016.79 1016.51 1016.19
1018.99 1019.15 1019.31 1019.27 1019.31 1019.51 1019.71 1019.83 1019.99 1020.03 1020.11 1020.11 1020.07 1020.03 1019.95 1019.91 1020.19 1020.43 1020.55 1020.87 1021.03 1021.03 1022.11 1021.75 1021.67 1022.19 1022.47 1022.51 1022.75 1022.91 1022.79 1023.35 1023.67 1023.35 1023.23 1023.03 1023.39 1023.55 1023.51 1023.63 1023.67 1023.59 1023.55 1023.47 1023.35 1023.19 1022.99 1022.87 1022.71 1022.51 1022.31 1022.07 1021.79 1021.59 1021.35 1021.11 1020.91 1020.71 1020.47 1020.27 1020.07 1019.83 1019.59 1019.31 1019.07 1018.75 1018.39 1018.03 1017.63 1017.27 1016.87 1016.59 1016.27 1015.95
1018.87 1018.99 1019.15 1019.19 1019.27 1019.51 1019.67 1019.87 1019.95 1020.03 1020.03 1020.07 1020.03 1019.99 1020.11 1020.15 1020.27 1020.47 1020.55 1020.59 1021.23 1021.43 1021.55 1021.95 1022.15 1022.35 1022.67 1022.71 1022.71 1022.67 1022.59 1023.11 1023.43 1023.03 1022.87 1022.99 1023.23 1022.79 1022.63 1023.15 1023.23 1023.31 1023.27 1023.19 1023.11 1022.99 1022.83 1022.67 1022.51 1022.31 1022.07 1021.87 1021.63 1021.39 1021.15 1020.95 1020.75 1020.51 1020.27 1020.07 1019.87 1019.63 1019.35 1019.11 1018.79 1018.47 1018.11 1017.75 1017.35 1016.99 1016.67 1016.39 1016.03 1015.67
1018.71 1018.79 1018.87 1019.03 1019.23 1019.43 1019.59 1019.67 1019.87 1019.91 1019.99 1020.19 1020.19 1020.03 1020.07 1020.19 1020.27 1020.43 1020.55 1020.59 1021.39 1021.91 1021.87 1022.03 1022.19 1022.39 1022.55 1022.59 1022.51 1022.39 1022.63 1022.75 1022.71 1022.79 1022.63 1022.79 1022.71 1022.51 1022.43 1022.31 1022.91 1022.95 1022.99 1022.95 1022.87 1022.75 1022.59 1022.43 1022.23 1022.07 1021.87 1021.67 1021.47 1021.19 1020.99 1020.75 1020.51 1020.27 1020.07 1019.83 1019.59 1019.39 1019.11 1018.83 1018.51 1018.19 1017.83 1017.47 1017.07 1016.75 1016.43 1016.15 1015.79 1015.39
1018.55 1018.67 1018.75 1018.95 1019.23 1019.43 1019.59 1019.71 1019.71 1019.83 1020.03 1020.07 1020.07 1020.11 1020.07 1020.11 1020.11 1020.11 1020.23 1020.23 1020.83 1021.79 1022.11 1022.03 1022.03 1022.51 1022.59 1022.35 1022.47 1022.59 1022.79 1022.75 1022.75 1022.67 1022.43 1022.47 1022.39 1022.35 1022.27 1021.95 1022.07 1022.63 1022.71 1022.67 1022.59 1022.47 1022.31 1022.15 1021.99 1021.83 1021.63 1021.43 1021.19 1020.95 1020.71 1020.51 1020.27 1020.03 1019.79 1019.59 1019.35 1019.11 1018.83 1018.55 1018.23 1017.87 1017.51 1017.15 1016.79 1016.47 1016.15 1015.83 1015.47 1015.11
1018.43 1018.67 1018.79 1018.95 1019.23 1019.47 1019.67 1019.83 1019.71 1019.83 1019.95 1019.83 1019.95 1019.95 1019.91 1019.99 1020.03 1020.07 1020.11 1020.19 1020.67 1021.43 1021.79 1021.83 1022.03 1022.27 1022.47 1022.31 1022.15 1022.31 1022.43 1022.55 1022.51 1022.39 1022.23 1022.31 1022.27 1022.19 1022.23 1022.07 1021.83 1022.35 1022.43 1022.39 1022.27 1022.19 1022.03 1021.87 1021.67 1021.51 1021.31 1021.11 1020.91 1020.67 1020.43 1020.19 1019.95 1019.75 1019.51 1019.27 1019.03 1018.75 1018.51 1018.23 1017.91 1017.59 1017.19 1016.83 1016.55 1016.19 1015.87 1015.55 1015.19 1014.83
1018.23 1018.47 1018.71 1018.91 1019.19 1019.43 1019.63 1019.75 1019.83 1019.87 1019.87 1019.95 1019.87 1020.11 1020.07 1020.19 1020.39 1020.39 1020.67 1020.63 1020.55 1021.07 1021.51 1021.71 1021.51 1021.91 1022.27 1022.39 1022.07 1022.11 1022.27 1022.31 1022.39 1022.27 1022.07 1022.11 1022.11 1022.07 1021.87 1021.87 1021.75 1021.91 1022.11 1022.07 1021.99 1021.87 1021.71 1021.51 1021.31 1021.11 1020.95 1020.75 1020.55 1020.35 1020.11 1019.87 1019.63 1019.39 1019.15 1018.91 1018.63 1018.43 1018.19 1017.91 1017.59 1017.23 1016.87 1016.55 1016.27 1015.91 1015.59 1015.23 1014.91 1014.55
1017.99 1018.23 1018.51 1018.71 1019.03 1019.27 1019.51 1019.67 1019.71 1019.71 1019.95 1019.83 1019.99 1020.07 1020.11 1020.23 1020.63 1020.99 1021.11 1020.83 1020.67 1020.95 1021.31 1021.55 1021.43 1021.75 1021.87 1021.87 1021.87 1021.87 1021.91 1021.87 1022.03 1021.95 1022.03 1021.95 1021.75 1021.83 1021.83 1021.71 1021.63 1021.75 1021.75 1021.67 1021.63 1021.47 1021.31 1021.07 1020.91 1020.79 1020.59 1020.39 1020.15 1019.91 1019.67 1019.43 1019.19 1018.99 1018.75 1018.51 1018.31 1018.11 1017.87 1017.55 1017.23 1016.87 1016.55 1016.23 1015.87 1015.55 1015.23 1014.91 1014.63 1014.27
1017.83 1018.07 1018.27 1018.55 1018.79 1019.07 1019.31 1019.47 1019.51 1019.67 1019.87 1019.91 1020.03 1020.11 1020.15 1020.43 1020.99 1021.43 1021.07 1020.83 1020.79 1020.87 1021.11 1021.39 1021.79 1021.91 1021.87 1021.95 1022.03 1021.83 1022.11 1022.19 1021.99 1021.87 1021.75 1021.75 1021.75 1021.71 1021.63 1021.43 1021.39 1021.35 1021.27 1021.19 1021.07 1020.95 1020.75 1020.55 1020.47 1020.31 1020.03 1019.83 1019.59 1019.43 1019.23 1019.03 1018.79 1018.55 1018.35 1018.15 1017.99 1017.79 1017.51 1017.19 1016.91 1016.59 1016.27 1015.91 1015.55 1015.23 1014.91 1014.63 1014.35 1014.03
1017.63 1017.87 1018.07 1018.35 1018.59 1018.83 1019.03 1019.23 1019.47 1019.67 1019.87 1019.99 1020.11 1020.23 1020.55 1020.75 1021.07 1020.91 1020.75 1020.71 1020.83 1020.87 1021.11 1021.31 1021.43 1021.67 1021.75 1021.79 1021.95 1021.91 1022.15 1022.27 1022.19 1022.11 1021.95 1021.67 1021.39 1021.47 1021.55 1021.39 1021.11 1021.07 1021.07 1020.95 1020.87 1020.71 1020.47 1020.27 1019.99 1019.67 1019.47 1019.19 1019.11 1018.99 1018.79 1018.51 1018.27 1018.11 1017.99 1017.87 1017.67 1017.39 1017.15 1016.87 1016.59 1016.31 1015.95 1015.59 1015.19 1014.87 1014.59 1014.31 1014.03 1013.75
1017.51 1017.71 1017.87 1018.15 1018.35 1018.59 1018.75 1019.03 1019.31 1019.55 1019.79 1019.91 1020.11 1020.31 1020.47 1020.75 1020.83 1020.67 1020.63 1020.67 1020.75 1020.95 1020.99 1020.99 1021.27 1021.31 1021.59 1021.83 1021.79 1021.79 1022.19 1022.23 1022.15 1022.07 1022.15 1022.07 1021.79 1021.55 1021.39 1021.23 1021.19 1020.99 1020.99 1020.75 1020.39 1020.15 1019.91 1019.67 1019.43 1019.19 1018.79 1018.63 1018.75 1018.47 1018.19 1017.87 1017.75 1017.79 1017.71 1017.51 1017.31 1017.07 1016.83 1016.59 1016.31 1015.99 1015.63 1015.23 1014.87 1014.55 1014.27 1013.95 1013.67 1013.43
1017.43 1017.63 1017.83 1018.03 1018.19 1018.43 1018.67 1019.03 1019.27 1019.47 1019.71 1019.87 1020.07 1020.23 1020.35 1020.47 1020.51 1020.47 1020.43 1020.47 1020.63 1020.79 1020.87 1020.99 1021.03 1021.23 1021.39 1021.43 1021.71 1021.91 1021.91 1021.79 1021.63 1021.87 1022.19 1022.19 1021.87 1021.63 1021.35 1020.95 1020.87 1020.95 1020.99 1020.75 1020.47 1020.11 1019.75 1019.51 1019.23 1018.79 1018.39 1018.19 1018.19 1017.83 1017.67 1017.39 1017.47 1017.47 1017.43 1017.27 1017.03 1016.79 1016.55 1016.27 1015.99 1015.67 1015.31 1014.95 1014.59 1014.31 1013.95 1013.63 1013.39 1013.15
1017.43 1017.55 1017.79 1018.03 1018.35 1018.75 1019.03 1019.31 1019.59 1019.87 1020.03 1020.03 1019.91 1019.99 1020.19 1020.31 1020.35 1020.35 1020.39 1020.43 1020.47 1020.63 1020.87 1020.91 1021.07 1021.23 1021.27 1021.27 1021.51 1021.55 1021.59 1021.67 1021.87 1022.03 1022.07 1022.03 1021.71 1021.63 1021.35 1020.95 1020.59 1020.67 1020.99 1020.83 1020.47 1020.07 1019.59 1019.39 1019.03 1018.63 1018.35 1018.03 1017.87 1017.55 1017.27 1017.19 1017.35 1017.27 1017.19 1016.99 1016.75 1016.51 1016.27 1015.99 1015.67 1015.35 1014.99 1014.67 1014.35 1014.03 1013.67 1013.39 1013.11 1012.83
1017.35 1017.51 1017.71 1018.11 1018.79 1019.07 1019.39 1019.59 1019.87 1020.07 1020.27 1020.35 1020.35 1020.27 1020.27 1020.31 1020.27 1020.31 1020.51 1020.51 1020.43 1020.59 1020.63 1020.63 1020.95 1020.99 1021.15 1021.31 1021.39 1021.51 1021.47 1021.63 1021.75 1021.71 1021.79 1021.87 1021.75 1021.63 1021.59 1021.31 1020.71 1020.51 1020.83 1020.71 1020.47 1019.95 1019.51 1019.23 1018.87 1018.51 1018.23 1017.95 1017.71 1017.51 1017.35 1017.31 1017.11 1017.03 1016.87 1016.67 1016.43 1016.15 1015.95 1015.71 1015.39 1015.03 1014.71 1014.39 1014.07 1013.75 1013.43 1013.11 1012.83 1012.51
1017.11 1017.39 1017.63 1018.03 1018.51 1018.79 1018.99 1019.31 1019.91 1020.27 1020.43 1020.55 1020.59 1020.63 1020.75 1020.83 1020.99 1021.11 1020.83 1020.55 1020.75 1020.83 1020.63 1020.71 1020.87 1020.91 1021.03 1021.19 1021.39 1021.35 1021.43 1021.47 1021.51 1021.63 1021.67 1021.71 1021.75 1021.71 1021.59 1021.31 1021.11 1020.63 1020.63 1020.67 1020.39 1019.91 1019.39 1019.03 1018.71 1018.43 1018.03 1017.75 1017.59 1017.47 1017.23 1017.03 1016.91 1016.75 1016.55 1016.27 1016.07 1015.83 1015.63 1015.35 1015.03 1014.71 1014.35 1014.03 1013.75 1013.47 1013.15 1012.83 1012.51 1012.19
1016.79 1017.11 1017.47 1017.87 1018.27 1018.51 1019.11 1019.27 1019.43 1019.75 1020.39 1020.83 1020.87 1020.91 1021.07 1021.19 1021.27 1021.31 1021.47 1021.55 1021.31 1020.87 1020.59 1020.67 1020.87 1020.91 1020.95 1021.23 1021.27 1021.31 1021.47 1021.55 1021.63 1021.55 1021.43 1021.31 1021.47 1021.55 1021.51 1021.23 1021.11 1020.83 1020.67 1020.71 1020.31 1019.99 1019.43 1018.95 1018.59 1018.27 1017.83 1017.55 1017.39 1017.15 1016.87 1016.83 1016.63 1016.35 1016.11 1015.91 1015.71 1015.47 1015.23 1014.99 1014.67 1014.31 1013.99 1013.67 1013.39 1013.15 1012.87 1012.55 1012.23 1011.83
1016.39 1016.79 1017.15 1017.55 1018.03 1018.31 1018.87 1018.91 1019.11 1019.39 1019.75 1020.31 1020.75 1020.83 1020.75 1020.71 1021.19 1021.55 1021.63 1021.55 1021.55 1021.47 1020.95 1020.71 1020.87 1020.95 1021.03 1021.11 1021.15 1021.39 1021.71 1021.79 1021.67 1021.51 1021.39 1021.43 1021.51 1021.59 1021.59 1021.47 1021.27 1020.91 1020.43 1020.35 1020.35 1019.95 1019.23 1018.91 1018.63 1018.15 1017.63 1017.39 1017.19 1016.91 1016.75 1016.63 1016.31 1016.07 1015.83 1015.59 1015.35 1015.07 1014.83 1014.59 1014.27 1013.95 1013.59 1013.23 1012.99 1012.83 1012.59 1012.31 1011.95 1011.55
1016.03 1016.43 1016.83 1017.19 1017.59 1018.03 1018.47 1018.55 1018.79 1019.07 1019.51 1019.95 1020.23 1020.35 1020.39 1020.39 1020.63 1020.95 1021.15 1021.35 1021.31 1021.23 1021.11 1020.87 1020.87 1021.03 1021.19 1021.27 1021.35 1021.47 1021.67 1021.75 1021.71 1021.71 1021.79 1021.87 1021.87 1021.79 1021.59 1021.15 1020.51 1020.15 1019.79 1019.87 1020.27 1020.03 1019.39 1018.95 1018.59 1018.03 1017.67 1017.27 1016.99 1016.71 1016.47 1016.15 1016.03 1015.79 1015.51 1015.23 1014.95 1014.63 1014.39 1014.15 1013.87 1013.51 1013.15 1012.79 1012.59 1012.55 1012.39 1012.11 1011.67 1011.23
1015.75 1016.11 1016.51 1016.91 1017.27 1017.71 1018.07 1018.39 1018.87 1018.99 1019.27 1019.67 1019.91 1020.07 1020.15 1020.23 1020.39 1020.59 1020.87 1021.07 1021.15 1021.15 1021.11 1021.07 1021.11 1021.27 1021.67 1021.87 1021.91 1022.07 1021.95 1021.75 1021.75 1021.75 1021.71 1021.63 1021.55 1021.39 1020.95 1020.51 1020.07 1019.99 1019.59 1019.59 1019.83 1019.91 1019.47 1018.95 1018.63 1018.03 1017.55 1017.27 1016.95 1016.55 1016.11 1015.79 1015.71 1015.47 1015.11 1014.75 1014.39 1014.19 1013.95 1013.71 1013.43 1013.07 1012.67 1012.39 1012.35 1012.31 1012.19 1011.91 1011.51 1010.91
1015.55 1015.83 1016.15 1016.51 1016.95 1017.39 1017.71 1018.31 1018.91 1019.19 1019.31 1019.39 1019.55 1019.67 1019.87 1020.03 1020.23 1020.35 1020.83 1021.31 1021.47 1021.51 1021.63 1021.83 1022.03 1022.19 1022.19 1022.23 1022.39 1022.51 1022.71 1022.59 1022.47 1022.11 1021.79 1021.35 1020.91 1020.79 1020.71 1020.35 1020.15 1019.87 1019.67 1019.27 1019.67 1019.91 1019.47 1018.87 1018.71 1018.15 1017.55 1017.23 1016.91 1016.35 1015.95 1015.63 1015.35 1015.07 1014.71 1014.27 1014.03 1013.83 1013.59 1013.31 1012.95 1012.63 1012.31 1012.11 1012.15 1012.19 1012.07 1011.75 1011.31 1010.63
1015.39 1015.63 1016.03 1016.31 1016.63 1017.11 1017.47 1018.39 1018.83 1019.23 1019.39 1019.23 1019.31 1019.39 1019.63 1019.95 1020.15 1020.23 1020.31 1020.87 1021.39 1021.79 1021.87 1021.95 1022.11 1022.27 1022.35 1022.43 1022.51 1022.55 1022.67 1022.83 1022.79 1022.23 1021.75 1021.19 1021.11 1020.99 1020.71 1020.47 1020.23 1019.95 1019.47 1019.43 1019.91 1019.87 1019.43 1019.03 1018.67 1018.27 1017.55 1017.07 1016.59 1016.27 1015.83 1015.55 1015.07 1014.67 1014.11 1013.83 1013.63 1013.35 1013.15 1012.87 1012.51 1012.27 1011.95 1011.79 1011.91 1011.99 1011.91 1011.51 1011.19 1010.39
1015.27 1015.59 1016.11 1016.43 1016.55 1016.87 1017.47 1018.43 1018.87 1019.23 1019.35 1019.07 1019.15 1019.19 1019.47 1019.67 1019.87 1019.91 1019.99 1020.35 1020.71 1021.15 1021.39 1021.51 1021.79 1021.91 1022.11 1022.15 1021.95 1021.83 1022.19 1022.51 1022.67 1022.31 1021.91 1021.51 1021.19 1020.91 1020.67 1020.55 1020.23 1019.87 1019.31 1019.59 1019.91 1019.91 1019.47 1019.31 1018.67 1018.35 1017.71 1017.23 1016.63 1016.15 1015.83 1015.39 1014.95 1014.39 1014.03 1013.63 1013.19 1012.99 1012.83 1012.51 1012.15 1011.79 1011.47 1011.35 1011.51 1011.67 1011.51 1011.39 1011.15 1010.47
1015.15 1015.39 1015.87 1016.47 1016.79 1017.15 1017.79 1018.35 1018.87 1019.15 1019.31 1018.91 1018.91 1019.11 1019.27 1019.39 1019.59 1019.59 1019.79 1019.99 1020.15 1020.43 1020.67 1020.75 1021.03 1021.23 1021.23 1021.31 1021.39 1021.31 1021.55 1022.03 1022.11 1021.95 1021.67 1021.47 1021.19 1020.95 1020.71 1020.43 1020.23 1019.99 1019.67 1019.39 1019.79 1019.95 1019.59 1019.35 1018.79 1018.39 1018.15 1017.71 1016.83 1016.11 1015.75 1015.35 1014.83 1014.39 1014.03 1013.55 1013.07 1012.83 1012.47 1012.07 1011.75 1011.39 1011.11 1010.95 1011.19 1011.03 1011.03 1011.27 1011.19 1010.71
1014.87 1015.15 1015.43 1015.87 1016.75 1017.39 1017.79 1018.31 1018.75 1019.15 1019.27 1019.15 1018.83 1019.03 1018.99 1019.15 1019.27 1019.39 1019.59 1019.99 1020.31 1020.11 1020.27 1020.47 1020.59 1020.71 1020.79 1020.79 1020.75 1020.79 1020.79 1020.87 1021.07 1021.27 1021.27 1021.19 1021.03 1020.91 1020.71 1020.43 1020.19 1019.91 1019.59 1019.55 1019.95 1019.87 1019.67 1019.35 1018.83 1018.55 1018.07 1017.75 1017.11 1016.39 1015.79 1015.39 1014.83 1014.39 1014.03 1013.51 1013.11 1012.59 1012.23 1011.91 1011.51 1010.91 1010.79 1010.59 1010.67 1010.51 1010.71 1010.95 1011.03 1010.87
1014.59 1014.83 1015.07 1015.43 1016.51 1017.31 1017.79 1018.23 1018.75 1019.07 1019.27 1019.35 1019.11 1018.91 1019.27 1019.55 1019.67 1019.63 1019.55 1019.75 1020.15 1020.19 1020.07 1020.07 1020.15 1020.19 1020.23 1020.23 1020.23 1020.23 1020.19 1020.19 1020.23 1020.39 1020.55 1020.67 1020.71 1020.63 1020.51 1020.39 1020.23 1019.99 1019.71 1019.55 1019.87 1019.79 1019.67 1019.31 1019.03 1018.71 1018.15 1017.79 1017.19 1016.75 1016.03 1015.39 1014.91 1014.43 1013.95 1013.47 1013.23 1012.67 1012.35 1011.91 1011.43 1011.07 1010.63 1010.31 1009.87 1010.07 1010.27 1010.55 1010.75 1010.59
1014.35 1014.63 1014.99 1015.47 1016.51 1017.27 1017.83 1018.35 1018.75 1019.11 1019.35 1019.67 1019.31 1019.35 1019.71 1019.95 1020.07 1020.11 1019.83 1019.79 1019.83 1019.83 1019.87 1019.83 1019.79 1019.75 1019.75 1019.71 1019.71 1019.71 1019.71 1019.63 1019.67 1019.79 1019.95 1020.07 1020.15 1020.23 1020.23 1020.19 1020.07 1019.87 1019.63 1019.47 1019.39 1019.31 1019.31 1019.15 1018.87 1018.63 1018.31 1017.91 1017.39 1016.67 1016.11 1015.55 1014.95 1014.47 1013.67 1013.51 1013.15 1012.71 1012.43 1011.95 1011.51 1011.03 1010.67 1010.19 1009.83 1009.75 1009.63 1010.03 1010.47 1010.43
1014.19 1014.55 1014.87 1015.55 1016.55 1017.27 1017.79 1018.31 1018.87 1019.15 1019.51 1019.47 1019.47 1019.83 1019.99 1020.19 1020.27 1019.95 1019.63 1019.59 1019.47 1019.47 1019.51 1019.63 1019.55 1019.47 1019.35 1019.27 1019.23 1019.23 1019.23 1019.27 1019.27 1019.35 1019.55 1019.79 1019.91 1019.91 1019.79 1019.71 1019.63 1019.51 1019.43 1019.35 1019.19 1019.11 1019.03 1018.99 1018.71 1018.43 1018.23 1017.83 1017.43 1016.87 1016.47 1015.83 1015.35 1014.55 1013.95 1013.63 1013.15 1012.83 1012.47 1012.03 1011.55 1011.11 1010.71 1010.31 1009.87 1009.27 1009.19 1009.71 1009.99 1009.91
1014.15 1014.47 1014.99 1015.79 1016.51 1017.23 1017.79 1018.23 1018.79 1019.31 1019.63 1019.55 1019.55 1019.91 1020.23 1020.27 1019.95 1019.83 1019.47 1019.23 1019.31 1019.35 1019.35 1019.27 1019.23 1019.15 1019.07 1018.99 1018.99 1018.99 1019.03 1019.11 1019.31 1019.55 1019.63 1019.67 1019.59 1019.47 1019.39 1019.35 1019.35 1019.31 1019.19 1019.03 1019.07 1018.87 1018.31 1018.47 1018.63 1018.35 1018.03 1017.63 1017.31 1016.87 1016.63 1016.15 1015.59 1014.59 1014.15 1013.83 1013.23 1012.91 1012.51 1012.15 1011.71 1011.19 1010.83 1010.51 1009.91 1009.19 1009.07 1009.91 1010.11 1010.27
1014.43 1014.79 1015.23 1015.75 1016.43 1017.11 1017.67 1018.23 1018.59 1018.79 1019.23 1019.71 1019.95 1020.19 1020.31 1019.95 1019.55 1019.43 1019.35 1019.23 1019.11 1019.03 1018.95 1018.99 1018.95 1018.83 1018.71 1018.75 1018.75 1018.91 1019.07 1019.27 1019.31 1019.27 1019.27 1019.19 1019.03 1018.99 1018.83 1018.71 1018.43 1018.35 1018.23 1017.87 1017.79 1017.99 1017.91 1018.03 1018.31 1018.19 1017.95 1017.51 1017.23 1017.03 1016.71 1016.39 1015.63 1014.79 1014.31 1013.99 1013.75 1013.11 1012.67 1012.31 1011.83 1011.35 1011.03 1010.55 1009.87 1009.27 1008.87 1009.75 1010.35 1010.47
1014.63 1015.11 1015.47 1016.03 1016.59 1016.95 1017.47 1017.63 1017.95 1018.27 1018.75 1019.43 1019.91 1019.79 1019.79 1019.43 1019.19 1019.11 1019.07 1018.87 1018.75 1018.75 1018.71 1018.63 1018.59 1018.55 1018.43 1018.43 1018.51 1018.75 1019.03 1019.11 1019.03 1018.95 1018.95 1018.91 1018.71 1018.71 1018.51 1018.47 1018.31 1018.11 1017.75 1017.51 1017.51 1017.71 1017.75 1017.83 1018.07 1017.99 1017.79 1017.39 1017.15 1017.03 1016.71 1016.43 1015.79 1014.99 1014.43 1014.15 1013.87 1013.43 1012.83 1012.47 1012.07 1011.59 1011.23 1010.75 1009.91 1009.27 1008.87 1009.23 1009.99 1010.31
1014.39 1015.15 1015.75 1016.39 1016.71 1017.07 1017.63 1017.67 1017.71 1017.83 1017.99 1018.23 1018.63 1018.63 1018.71 1018.83 1018.79 1018.75 1018.79 1018.83 1018.71 1018.71 1018.67 1018.55 1018.35 1018.27 1018.31 1018.35 1018.35 1018.47 1018.59 1018.55 1018.51 1018.51 1018.51 1018.51 1018.55 1018.47 1018.31 1018.27 1018.07 1017.83 1017.51 1017.27 1017.19 1017.27 1017.59 1017.67 1017.63 1017.55 1017.43 1017.19 1016.99 1016.63 1016.47 1016.27 1015.71 1015.23 1014.79 1014.35 1013.99 1013.55 1013.15 1012.79 1012.39 1011.87 1011.47 1010.87 1010.11 1009.43 1008.87 1009.03 1009.87 1010.19
1014.47 1015.07 1015.55 1015.87 1016.27 1016.51 1016.87 1017.19 1017.07 1017.19 1017.35 1017.39 1017.55 1017.83 1017.91 1018.03 1018.19 1018.31 1018.43 1018.67 1018.71 1018.63 1018.55 1018.39 1018.27 1018.23 1018.27 1018.23 1018.23 1018.23 1018.23 1018.23 1018.23 1018.11 1018.15 1018.27 1018.43 1018.27 1018.15 1018.07 1017.91 1017.67 1017.35 1017.11 1017.11 1017.07 1017.07 1017.15 1017.31 1017.27 1016.99 1016.63 1016.19 1015.91 1016.31 1016.19 1015.71 1015.43 1015.07 1014.51 1014.11 1013.71 1013.31 1013.03 1012.71 1012.23 1011.63 1010.99 1010.47 1009.87 1009.35 1009.03 1009.71 1010.19
1014.23 1014.59 1014.83 1015.15 1015.55 1015.79 1016.03 1016.27 1016.39 1016.31 1016.39 1016.51 1016.71 1016.99 1017.39 1017.51 1017.43 1017.55 1017.83 1018.07 1018.11 1018.23 1018.31 1018.19 1018.15 1018.15 1018.11 1017.99 1017.87 1017.87 1017.91 1017.87 1017.87 1017.87 1018.07 1018.19 1018.11 1018.11 1017.99 1017.91 1017.59 1017.27 1017.19 1017.07 1016.99 1016.99 1016.91 1016.95 1016.95 1016.75 1016.47 1016.15 1015.83 1015.59 1015.87 1015.83 1015.79 1015.51 1015.27 1014.83 1014.43 1014.03 1013.63 1013.31 1012.91 1012.47 1011.91 1011.31 1010.75 1010.11 1009.67 1009.03 1009.63 1010.15
1013.87 1014.19 1014.39 1014.67 1014.75 1015.11 1015.19 1015.51 1015.67 1015.79 1015.71 1015.91 1016.11 1016.27 1016.59 1016.95 1016.99 1017.27 1017.31 1017.35 1017.59 1017.83 1017.99 1018.11 1017.95 1017.79 1017.87 1017.79 1017.71 1017.75 1017.71 1017.71 1017.63 1017.59 1017.55 1017.71 1017.79 1017.79 1017.75 1017.67 1017.39 1017.15 1017.11 1017.07 1017.03 1016.87 1016.79 1016.79 1016.75 1016.51 1016.23 1015.95 1015.71 1015.31 1015.83 1015.99 1015.75 1015.63 1015.43 1015.15 1014.75 1014.35 1013.99 1013.63 1013.15 1012.55 1012.07 1011.47 1010.99 1010.71 1010.15 1009.75 1009.47 1009.87
1013.35 1013.51 1013.75 1014.03 1014.15 1014.47 1014.71 1014.91 1015.07 1015.15 1015.15 1015.39 1015.59 1015.83 1016.03 1016.39 1016.59 1016.87 1016.95 1017.03 1017.19 1017.47 1017.67 1017.83 1017.95 1017.79 1017.67 1017.67 1017.67 1017.71 1017.63 1017.67 1017.75 1017.79 1017.71 1017.43 1017.27 1017.31 1017.23 1017.03 1017.07 1017.19 1017.23 1017.11 1016.95 1016.79 1016.75 1016.79 1016.67 1016.55 1016.35 1016.07 1015.95 1015.87 1015.47 1016.07 1016.15 1015.75 1015.63 1015.39 1014.99 1014.67 1014.39 1013.87 1013.43 1012.87 1012.27 1011.79 1011.43 1010.95 1010.59 1009.91 1009.71 1009.95
1013.23 1013.27 1013.23 1013.43 1013.67 1013.95 1014.23 1014.39 1014.55 1014.75 1014.79 1014.87 1015.03 1015.19 1015.55 1015.87 1016.11 1016.27 1016.51 1016.87 1016.99 1017.11 1017.19 1017.39 1017.51 1017.59 1017.63 1017.71 1017.75 1017.75 1017.79 1018.07 1018.07 1017.87 1017.67 1017.35 1017.23 1017.19 1017.11 1016.91 1016.91 1016.79 1016.79 1016.55 1016.67 1016.67 1016.63 1016.63 1016.67 1016.51 1016.47 1016.35 1016.31 1016.19 1015.83 1015.55 1015.95 1016.11 1015.71 1015.47 1015.23 1014.95 1014.67 1014.11 1013.63 1013.23 1012.75 1012.39 1011.83 1011.39 1010.91 1010.55 1010.35 1010.31
1012.99 1012.95 1012.87 1012.95 1013.11 1013.39 1013.75 1013.91 1014.11 1014.31 1014.35 1014.39 1014.55 1014.79 1014.99 1015.19 1015.47 1015.75 1015.95 1016.39 1016.67 1016.87 1016.95 1017.07 1017.11 1017.31 1017.31 1017.31 1017.47 1017.63 1017.83 1017.75 1017.63 1017.47 1017.35 1017.27 1017.31 1017.23 1016.99 1016.75 1016.59 1016.47 1016.35 1016.47 1016.63 1016.63 1016.55 1016.47 1016.19 1016.27 1016.59 1016.67 1016.67 1016.51 1016.15 1015.79 1015.35 1015.47 1015.83 1015.55 1015.39 1015.15 1014.87 1014.43 1014.03 1013.63 1013.27 1012.87 1012.43 1011.87 1011.31 1011.03 1010.87 1010.83
1012.55 1012.43 1012.59 1012.79 1012.83 1012.95 1013.15 1013.47 1013.59 1013.79 1013.91 1013.99 1014.15 1014.35 1014.55 1014.63 1014.63 1015.11 1015.51 1015.87 1016.07 1016.35 1016.55 1016.63 1016.75 1016.91 1017.11 1017.11 1017.35 1017.75 1017.83 1017.63 1017.35 1017.15 1017.15 1017.15 1017.11 1016.95 1016.63 1016.31 1016.31 1016.19 1016.39 1016.59 1016.63 1016.59 1016.47 1016.19 1016.07 1016.51 1016.67 1016.91 1017.03 1016.83 1016.71 1016.15 1015.71 1015.19 1015.39 1015.59 1015.43 1015.23 1015.11 1014.91 1014.59 1014.19 1013.83 1013.43 1012.75 1012.23 1011.83 1011.47 1011.31 1011.35
1011.87 1012.03 1012.55 1012.59 1012.47 1012.55 1012.67 1012.83 1013.03 1013.11 1013.47 1013.67 1013.75 1013.91 1014.11 1014.23 1014.31 1014.67 1014.87 1015.31 1015.71 1015.79 1015.99 1016.19 1016.51 1016.83 1017.07 1017.23 1017.55 1017.67 1017.55 1017.27 1017.07 1016.99 1017.03 1016.99 1016.91 1016.79 1016.51 1016.31 1016.19 1016.27 1016.51 1016.71 1016.83 1016.67 1016.39 1016.03 1016.03 1016.71 1016.87 1017.03 1016.95 1016.75 1016.47 1016.31 1015.87 1015.07 1014.95 1015.47 1015.59 1015.39 1015.31 1015.11 1014.95 1014.63 1014.43 1014.07 1013.35 1012.71 1012.23 1011.67 1011.39 1011.27
1011.79 1012.03 1011.95 1012.03 1012.07 1012.19 1012.07 1012.23 1012.67 1012.91 1013.15 1013.23 1013.47 1013.71 1013.87 1013.99 1014.23 1014.31 1014.43 1014.71 1015.15 1015.51 1015.75 1016.03 1016.39 1016.67 1016.87 1017.03 1017.11 1017.23 1017.11 1016.87 1016.91 1016.95 1016.95 1016.87 1016.79 1016.71 1016.63 1016.67 1016.67 1016.51 1016.51 1016.59 1016.67 1016.59 1016.31 1015.91 1016.79 1017.31 1017.35 1016.99 1016.79 1016.39 1015.75 1015.47 1015.47 1015.15 1014.95 1014.75 1015.31 1015.47 1015.35 1015.31 1015.11 1014.95 1015.03 1014.55 1013.91 1013.47 1012.83 1012.31 1011.83 1011.75
1011.23 1011.47 1011.59 1011.67 1011.63 1011.79 1012.07 1012.23 1012.23 1012.51 1012.83 1012.99 1013.19 1013.43 1013.71 1013.87 1013.91 1014.15 1014.43 1014.67 1014.91 1015.43 1015.67 1015.87 1016.11 1016.39 1016.55 1016.59 1016.63 1016.71 1016.83 1016.79 1016.75 1016.75 1016.75 1016.67 1016.51 1016.47 1016.59 1016.71 1016.51 1016.31 1016.31 1016.35 1016.43 1016.31 1015.91 1016.07 1016.75 1016.99 1016.71 1016.55 1016.07 1015.99 1015.95 1015.83 1015.83 1015.31 1015.11 1014.75 1014.63 1014.99 1015.27 1015.19 1015.23 1015.39 1015.23 1014.79 1014.47 1014.03 1013.59 1012.87 1012.31 1012.31
1010.83 1010.95 1011.11 1011.11 1011.31 1011.51 1011.67 1012.03 1012.43 1012.67 1012.75 1012.83 1012.99 1013.07 1013.23 1013.67 1013.79 1014.11 1014.35 1014.47 1014.87 1015.35 1015.55 1015.51 1015.71 1015.87 1015.99 1016.07 1016.15 1016.23 1016.35 1016.51 1016.63 1016.71 1016.71 1016.59 1016.47 1016.31 1016.07 1016.11 1016.27 1016.15 1016.03 1016.03 1016.03 1016.03 1016.07 1016.07 1016.07 1016.11 1016.23 1016.11 1015.71 1016.03 1015.79 1016.03 1015.75 1015.27 1015.07 1014.83 1014.99 1014.83 1014.59 1014.79 1015.11 1015.27 1015.43 1015.27 1015.07 1015.07 1014.87 1014.43 1013.55 1013.63
1010.31 1010.51 1010.63 1010.87 1011.23 1011.51 1011.67 1011.87 1012.55 1012.59 1012.51 1012.51 1012.59 1012.79 1013.11 1013.39 1013.67 1013.83 1014.11 1014.43 1014.67 1014.95 1015.15 1015.19 1015.23 1015.39 1015.55 1015.63 1015.71 1015.83 1015.91 1015.95 1016.11 1016.31 1016.39 1016.39 1016.35 1016.27 1016.07 1015.79 1015.71 1015.79 1015.87 1015.95 1015.95 1015.91 1015.91 1015.91 1015.87 1015.91 1016.15 1015.95 1015.47 1015.63 1016.03 1016.03 1015.59 1015.47 1015.31 1015.27 1015.23 1014.95 1014.59 1014.39 1014.67 1015.27 1015.31 1015.27 1014.91 1015.07 1015.11 1015.03 1014.99 1014.91
1010.27 1010.51 1010.63 1010.87 1010.99 1011.43 1011.63 1011.67 1011.91 1011.95 1011.99 1012.11 1012.35 1012.59 1012.83 1013.11 1013.35 1013.63 1013.91 1014.23 1014.47 1014.67 1014.83 1014.91 1014.99 1015.03 1015.15 1015.23 1015.35 1015.47 1015.51 1015.71 1015.83 1015.83 1015.91 1015.87 1015.83 1015.87 1015.91 1015.87 1015.59 1015.51 1015.71 1015.79 1015.95 1015.87 1015.83 1015.79 1015.63 1015.51 1015.35 1015.19 1015.35 1015.39 1015.59 1015.79 1015.75 1015.59 1015.11 1015.11 1015.03 1014.91 1014.51 1014.59 1014.43 1014.11 1013.63 1013.83 1014.55 1014.75 1014.83 1014.83 1014.75 1014.67
Wind_Speed
9 9 10 9 8 8 7 7 7 7 6 6 6 6 7 7 7 6 6 7 6 8 7 6 7 6 4 4 3 4 4 6 2 3 3 2 3 6 1 4 4 7 6 6 7 8 9 10 11 11 12 13 13 13 14 14 14 15 16 16 17 17 16 16 17 17 19 21 23 23 24 26 28 27
6 7 7 7 7 5 5 5 5 5 5 6 6 7 7 7 7 6 6 5 7 5 7 5 5 6 5 3 3 3 3 9 4 4 2 4 2 2 5 5 6 6 5 5 6 8 9 10 11 12 13 13 14 14 14 14 15 16 16 17 17 16 16 17 18 19 20 21 23 23 25 27 27 28
6 7 7 7 6 4 4 4 4 4 5 5 6 6 6 6 6 6 5 6 5 2 6 5 1 5 5 3 3 3 2 7 3 5 3 3 4 7 7 10 7 6 5 5 6 8 9 9 11 12 13 14 14 14 15 15 15 16 16 16 16 16 17 17 18 19 21 22 23 24 25 24 27 29
7 7 8 7 6 5 5 5 4 4 5 5 5 6 6 5 5 5 5 7 4 3 4 5 4 5 4 3 4 4 3 8 8 3 4 1 6 8 4 12 7 7 5 5 6 7 8 9 10 11 12 13 14 15 15 14 15 15 15 14 15 14 16 17 18 20 21 22 23 24 24 24 25 27
7 8 8 7 6 5 5 4 4 5 5 5 5 5 5 5 6 7 6 7 6 4 3 4 5 4 4 5 4 3 2 2 3 4 2 2 4 2 4 4 10 6 5 6 7 8 9 9 11 11 12 12 13 13 13 13 13 14 15 15 14 14 15 17 17 18 20 21 22 23 23 24 25 26
7 7 7 7 6 6 5 4 5 5 5 5 5 5 5 6 6 7 6 6 5 6 5 5 5 5 5 4 3 2 2 2 3 4 3 2 3 3 3 4 4 7 4 5 7 9 9 10 11 11 12 12 12 12 13 14 14 14 14 15 15 14 14 15 17 18 20 21 21 22 22 23 23 24
8 8 7 7 7 5 6 6 4 4 5 4 5 5 5 5 5 6 6 4 5 6 6 6 5 5 5 5 3 4 3 2 3 4 2 2 2 2 2 3 2 9 4 5 8 9 10 11 12 12 12 13 13 13 14 14 14 14 14 15 15 14 15 15 16 18 20 20 20 21 22 22 23 24
9 9 9 8 8 7 7 7 5 5 4 4 4 4 3 3 3 2 2 4 2 5 6 6 6 6 5 4 4 3 2 3 3 3 2 3 2 3 3 2 3 2 3 7 9 10 11 12 13 13 14 14 14 14 14 14 13 13 14 14 14 14 14 15 16 17 17 18 19 20 20 21 23 24
10 10 9 9 9 8 8 7 7 6 6 5 4 4 4 3 4 2 3 5 3 5 5 6 3 4 4 4 2 2 3 3 4 4 3 3 3 2 3 4 3 5 9 11 12 11 12 14 14 14 14 14 14 14 13 13 13 13 14 14 13 13 14 16 16 15 17 17 18 19 20 21 22 24
10 9 9 9 9 9 9 8 7 6 7 5 5 5 5 6 5 5 6 4 4 5 5 5 5 4 4 4 3 2 2 3 3 3 3 4 4 3 3 3 2 4 4 5 4 6 10 10 11 13 13 14 14 13 13 13 14 14 13 12 11 13 15 16 17 18 18 18 18 18 19 19 21 23
10 9 9 9 10 10 9 8 8 7 7 5 6 6 6 7 8 7 6 5 6 5 5 5 5 5 5 4 4 4 1 2 3 3 3 4 2 3 3 4 3 3 4 6 9 10 10 13 12 12 14 15 14 14 13 14 14 13 11 10 12 14 15 16 17 16 18 19 19 19 19 18 19 21
10 10 9 9 10 10 9 9 8 8 7 6 6 6 6 7 7 6 6 6 6 5 5 5 5 5 4 4 3 1 2 4 5 3 3 5 4 5 4 4 4 4 5 7 7 6 8 9 10 12 14 12 10 13 12 12 10 7 8 12 15 15 16 17 17 18 19 19 20 19 19 19 19 20
9 9 9 9 10 9 8 8 7 6 4 6 7 7 7 8 7 7 6 6 5 5 5 5 4 4 4 4 4 4 4 3 2 2 2 5 5 5 6 5 4 3 6 8 9 9 8 8 9 8 9 9 12 11 9 9 9 13 13 14 15 15 16 17 18 19 19 19 20 20 20 20 20 20
10 10 8 8 8 11 10 9 9 9 6 4 2 7 8 8 7 7 7 6 6 5 5 5 5 5 4 4 3 3 2 1 1 3 4 5 5 6 6 6 4 3 5 8 9 9 8 8 9 9 9 9 10 10 10 11 11 12 15 15 15 15 16 17 18 19 19 19 19 20 20 20 20 20
10 9 9 8 10 10 9 9 10 9 7 3 2 1 0 2 2 8 7 5 5 5 5 5 5 4 4 4 3 4 3 3 3 3 3 4 5 5 7 7 5 1 4 8 10 9 9 9 10 9 10 9 9 11 12 14 14 14 13 15 16 16 16 17 18 19 19 19 18 19 19 20 20 20
10 10 10 9 8 9 10 10 9 8 7 5 4 4 3 4 8 8 3 3 6 5 5 5 5 4 4 4 4 4 3 3 4 3 4 4 4 6 6 7 7 7 7 8 9 10 9 9 10 10 9 9 9 11 13 13 12 13 14 15 16 16 16 17 18 19 19 19 18 18 18 19 19 20
11 10 10 9 8 8 11 10 10 10 8 4 5 6 5 3 3 5 5 7 3 3 5 4 4 4 3 4 5 4 2 1 3 3 4 3 4 5 7 7 9 9 8 8 9 11 10 9 11 11 10 9 10 11 12 14 15 15 15 15 15 16 16 17 18 19 19 19 18 17 17 18 19 20
12 12 11 10 10 10 12 10 11 11 10 9 7 7 8 8 5 2 1 4 4 4 4 3 4 4 3 4 2 3 2 3 3 4 4 4 5 6 8 10 11 10 9 8 8 10 9 10 11 11 10 10 10 11 14 15 14 14 14 14 15 16 17 17 18 19 19 19 17 15 15 17 19 21
12 12 11 11 11 11 12 11 12 11 11 10 9 9 9 9 8 7 7 6 5 5 4 3 3 3 5 4 3 3 4 4 4 3 5 6 7 8 9 11 10 8 6 5 6 10 10 11 11 11 12 11 12 11 13 12 11 12 14 15 16 17 18 17 18 19 19 19 16 13 13 16 19 21
11 12 12 11 11 11 12 12 12 11 10 11 10 10 10 9 7 7 3 3 1 1 3 3 2 2 6 7 6 6 4 2 2 4 5 6 7 8 8 8 6 7 6 7 6 8 11 10 11 12 12 12 12 12 11 13 13 15 16 17 17 17 17 17 17 18 18 18 14 11 11 15 19 22
11 12 13 12 11 11 12 13 13 10 10 10 11 10 10 8 7 7 5 4 2 2 4 6 6 6 5 4 5 4 3 3 4 5 5 6 5 6 8 8 7 7 8 5 3 8 12 10 11 13 12 12 12 11 11 12 15 15 15 16 15 15 15 15 16 17 18 16 12 8 10 14 19 23
11 12 14 13 12 12 10 16 14 12 10 9 10 10 10 9 8 8 7 5 4 3 0 2 3 2 2 1 2 4 4 5 4 5 7 6 6 7 7 8 8 8 8 4 5 10 10 12 11 12 12 12 10 11 11 14 14 15 14 14 14 12 11 14 16 16 16 12 7 5 10 16 20 18
10 11 11 12 11 11 12 18 15 14 12 9 10 10 9 9 9 8 8 7 8 7 6 6 6 6 6 6 7 7 11 10 8 7 7 7 7 7 7 8 8 8 6 4 6 10 11 12 11 12 12 12 11 10 13 13 13 12 13 13 14 13 13 15 13 12 11 6 3 3 11 17 18 16
10 11 11 11 9 11 17 17 16 15 14 10 10 9 9 8 8 7 8 8 7 8 8 7 8 9 9 9 9 8 7 7 9 8 8 8 8 8 8 8 8 8 7 4 7 10 10 10 12 11 11 13 11 12 13 13 13 13 13 14 13 15 16 15 15 15 16 4 8 3 12 15 17 15
11 10 11 11 11 14 16 17 17 16 17 11 8 9 8 7 4 5 7 7 5 7 7 7 7 8 8 8 7 7 8 8 8 9 9 9 8 8 8 8 8 9 8 4 4 9 10 10 11 11 11 11 12 13 13 13 12 13 13 14 14 15 14 14 13 16 15 17 4 10 10 12 16 14
10 10 11 10 13 16 16 17 16 16 16 14 6 9 5 11 8 5 4 4 7 7 6 7 8 8 8 8 8 8 8 8 8 8 8 9 9 8 8 8 9 9 10 2 8 7 9 10 10 11 11 11 12 13 13 12 12 13 13 13 14 14 14 14 14 14 16 16 16 6 6 11 15 17
9 9 10 9 17 16 16 15 16 15 16 11 8 4 11 8 8 2 5 5 6 7 8 8 8 8 8 8 8 7 7 7 7 7 7 7 7 7 8 9 10 10 10 11 10 10 8 9 10 11 12 12 13 13 12 13 13 13 13 13 14 14 13 14 14 15 15 17 16 9 5 9 11 16
9 9 10 10 18 17 16 16 14 14 13 10 13 5 9 9 7 6 6 6 6 7 7 8 8 8 8 7 7 7 7 6 6 6 4 5 7 9 9 10 11 10 11 11 10 9 9 9 10 10 11 12 12 12 13 12 13 13 15 14 13 13 13 14 15 15 15 16 15 15 9 7 9 11
8 8 13 18 18 17 16 16 14 11 12 13 11 9 9 8 7 8 7 6 6 7 8 8 8 8 7 7 6 5 6 5 3 4 6 8 9 9 9 10 10 10 9 8 9 10 9 7 9 10 11 10 9 11 11 13 13 14 14 15 14 14 13 14 15 15 15 16 16 18 10 4 9 11
11 14 16 18 18 17 15 11 8 8 8 12 6 7 8 8 8 8 8 7 7 8 8 8 8 7 7 7 7 7 6 6 7 7 7 7 7 7 8 8 8 7 9 9 8 8 9 8 7 9 11 11 10 8 10 11 12 13 14 14 14 12 12 14 15 15 15 17 17 17 14 7 6 9
7 11 11 10 12 10 15 12 11 10 10 10 7 7 8 9 9 9 9 9 8 8 7 7 7 7 7 6 6 6 6 7 7 7 7 7 7 7 7 8 8 8 8 8 6 7 8 7 8 9 10 11 11 8 10 10 12 13 13 13 13 14 14 14 15 16 15 16 17 16 17 9 6 8
9 8 9 11 8 8 8 8 8 9 9 10 10 10 10 10 11 11 10 9 8 7 7 7 7 7 6 7 6 6 7 7 7 7 7 6 7 7 7 8 8 8 8 7 6 5 5 6 6 8 10 8 8 9 8 9 11 12 13 13 12 12 13 14 15 15 16 16 16 17 17 14 9 10
9 9 9 8 9 8 9 7 9 10 10 10 11 12 11 10 11 11 10 10 9 8 8 8 7 7 6 7 7 7 7 7 7 6 6 6 7 7 7 8 8 9 8 8 7 6 5 5 6 8 9 10 11 6 3 5 8 11 12 13 12 13 12 13 14 15 16 15 15 15 16 14 9 8
9 10 9 9 9 10 10 11 11 12 12 11 11 11 12 11 11 11 11 10 11 10 10 8 8 8 7 7 7 7 7 7 7 6 6 6 7 7 7 8 8 8 7 7 7 7 7 6 7 8 8 7 8 4 1 4 7 10 11 11 12 12 12 13 13 15 15 14 15 15 14 16 11 9
8 8 8 9 10 10 11 11 12 12 10 9 8 10 11 12 11 10 11 11 9 8 7 8 8 7 7 7 7 7 7 7 6 6 5 6 6 7 7 8 8 7 7 8 8 7 7 7 8 9 8 8 8 5 5 3 6 7 9 10 11 11 12 12 13 13 15 14 14 14 14 14 15 12
8 8 9 8 10 11 10 10 11 12 11 11 11 10 9 10 12 11 10 10 10 10 9 6 6 6 6 6 7 7 7 6 5 5 7 7 7 6 7 8 7 7 8 8 7 7 7 7 8 9 9 9 9 8 4 4 0 5 7 8 10 11 11 12 12 12 13 14 13 13 12 16 16 15
6 8 10 11 11 11 9 11 11 11 11 11 11 11 11 9 11 12 11 11 10 9 9 7 7 6 5 5 7 5 5 4 3 6 7 8 7 7 8 7 8 7 7 7 5 7 6 6 6 7 8 7 8 8 8 7 4 7 7 7 8 10 11 12 12 12 12 13 13 13 13 13 15 15
7 10 11 11 12 11 11 11 11 11 11 11 11 11 11 11 11 11 11 11 11 10 9 7 6 7 7 8 6 4 4 5 7 6 7 7 5 5 7 5 7 7 7 6 6 6 6 7 7 6 7 7 8 9 10 8 8 1 8 5 6 8 10 11 10 10 11 12 12 12 12 12 13 15
10 12 11 10 11 11 11 11 11 11 11 11 11 11 11 12 12 11 11 11 11 11 10 10 9 8 7 8 5 4 4 5 6 6 5 6 8 8 9 7 7 7 6 5 6 6 7 7 6 6 7 6 7 8 7 9 7 7 4 2 5 6 7 9 9 9 11 11 13 11 10 9 8 11
12 10 9 11 12 11 11 12 13 12 11 11 11 11 10 11 11 11 10 10 9 11 10 8 7 8 7 5 4 4 6 9 8 5 5 5 6 8 8 5 6 4 4 5 4 7 7 7 4 6 8 7 6 5 6 7 7 7 1 5 5 2 5 7 7 8 9 12 12 10 10 9 8 11
9 10 11 11 11 11 13 12 11 11 11 10 10 10 10 10 11 10 10 8 8 7 7 6 6 8 6 6 7 6 7 6 5 6 6 6 6 5 5 6 5 5 4 4 6 5 8 4 5 3 3 6 5 8 6 4 7 6 8 3 8 6 3 2 5 7 6 9 10 8 10 10 9 10
11 11 11 11 12 11 11 12 13 11 10 9 9 9 10 10 10 7 8 9 8 6 6 6 6 6 6 7 7 7 7 6 5 5 5 6 6 6 5 5 6 5 4 4 4 6 5 1 6 4 5 5 5 5 6 6 7 7 6 7 5 6 10 8 2 6 8 8 8 8 8 8 8 9
11 11 11 11 10 11 11 10 9 9 9 9 9 10 10 8 8 7 7 6 6 5 6 6 6 7 7 7 8 7 6 6 6 6 5 5 5 6 5 5 5 6 6 4 5 5 5 5 5 6 4 6 5 5 6 6 7 6 7 7 7 8 3 7 14 11 8 2 8 5 5 6 8 9
11 11 10 9 9 9 9 10 11 10 10 10 9 9 7 7 7 7 7 7 7 6 6 7 7 7 8 8 7 7 7 7 6 6 6 6 6 6 6 6 5 4 3 4 4 4 3 3 4 3 4 6 4 4 5 6 6 6 6 5 6 7 6 6 2 7 5 6 9 7 2 2 2 3
8 9 9 9 9 9 11 10 10 11 10 9 8 8 7 7 7 7 7 7 6 6 6 7 7 7 7 7 7 7 7 7 6 5 6 6 6 6 6 6 6 5 4 4 4 4 4 4 4 5 5 5 6 5 4 4 5 5 5 5 6 6 6 6 6 6 4 2 8 9 7 6 5 7
Wind_Direction
222 223 223 227 233 231 227 231 233 231 238 236 234 228 224 228 242 203 215 208 215 171 187 193 181 198 187 187 156 190 221 98 315 291 287 273 276 84 230 245 280 287 293 309 310 313 314 317 318 318 319 321 322 322 320 318 315 314 312 312 313 313 310 307 306 306 308 313 317 317 319 317 315 315
208 212 212 215 223 218 206 213 210 216 221 229 230 231 232 230 236 237 238 212 198 179 195 226 161 189 185 168 198 183 216 108 241 264 273 277 15 108 232 229 242 258 283 303 305 305 308 311 315 317 315 315 315 316 315 313 312 310 310 310 311 308 307 308 308 310 311 314 317 318 320 320 319 315
206 202 205 205 211 179 197 180 189 206 212 218 226 229 239 232 236 251 242 251 148 174 178 198 148 154 164 191 162 203 227 139 222 247 259 263 51 262 212 202 203 257 272 301 304 308 311 306 305 306 305 306 311 311 311 311 309 307 307 306 304 305 306 307 308 310 313 316 317 318 322 320 319 317
200 198 197 197 195 176 176 189 189 200 213 224 229 228 225 228 235 236 244 256 144 186 163 161 172 161 169 197 214 198 220 135 205 278 253 120 226 251 169 171 189 213 264 285 298 301 303 299 297 300 301 304 306 308 307 306 303 302 301 300 301 298 303 306 307 310 313 315 317 320 320 319 317 317
197 194 198 186 183 170 192 186 190 204 204 209 228 234 219 222 213 219 227 233 133 136 130 155 175 159 173 205 229 236 203 230 209 252 250 276 292 286 287 166 167 192 229 273 294 299 296 297 298 299 299 297 296 298 299 298 298 298 298 299 298 298 301 303 303 307 312 316 320 320 319 318 319 318
191 188 194 182 171 174 190 186 200 187 191 200 206 206 216 211 206 215 218 225 168 157 170 172 167 167 209 232 172 235 264 264 264 278 285 264 289 321 298 300 139 148 235 274 291 293 291 292 292 288 288 289 290 291 293 293 294 293 293 296 298 297 298 301 306 310 315 318 319 318 317 318 318 318
180 182 187 179 168 169 183 186 198 168 192 193 198 199 204 211 207 202 225 229 185 164 168 172 175 177 188 237 182 194 196 255 295 280 245 278 264 274 286 286 316 137 258 267 285 282 283 284 282 283 282 284 285 286 287 287 287 289 293 296 297 298 300 304 307 310 314 316 316 315 316 316 317 317
182 185 183 179 171 176 181 185 177 185 182 190 180 183 182 183 176 179 219 258 207 171 161 176 189 166 178 209 223 208 246 242 259 278 303 261 231 275 263 263 283 107 253 264 266 269 271 272 273 274 275 276 277 279 278 278 281 288 293 294 295 297 303 307 308 310 309 311 310 309 309 313 315 316
184 184 185 178 176 179 182 180 185 178 180 183 170 175 164 140 110 76 208 211 193 172 171 164 164 156 190 191 200 232 262 205 225 220 250 282 292 289 283 274 271 253 233 239 245 254 259 263 266 265 266 268 267 270 273 278 287 289 289 290 294 300 307 310 310 308 310 308 307 307 310 312 312 312
187 183 185 177 179 180 182 180 180 171 175 171 165 162 147 122 114 180 203 196 180 184 164 165 159 190 194 182 218 174 215 278 287 282 263 243 235 261 279 282 275 305 318 330 297 258 255 257 256 262 263 266 270 272 276 279 280 282 282 289 296 305 310 311 311 310 309 307 307 307 309 308 308 309
184 184 183 179 181 182 182 178 171 169 168 167 164 153 136 134 159 195 184 181 177 180 167 171 180 179 187 208 201 191 208 271 283 291 293 281 285 291 308 303 307 303 308 288 241 247 268 272 272 276 270 264 266 266 265 271 272 275 286 291 305 313 313 311 309 306 306 307 307 308 308 307 305 305
182 184 181 180 183 183 180 176 170 169 170 166 164 154 157 162 180 187 179 177 179 179 187 186 180 187 177 187 230 156 208 232 231 225 310 305 308 306 300 283 300 322 322 325 326 289 263 262 257 255 259 245 237 257 261 273 268 280 298 313 314 312 310 308 307 306 306 307 308 308 308 306 304 304
182 181 180 182 183 182 159 155 162 152 143 168 169 168 174 175 182 189 183 183 185 184 191 188 187 190 191 199 183 207 217 237 317 38 307 289 288 302 298 297 289 297 323 326 322 318 319 312 313 316 328 340 329 320 304 318 348 333 320 310 307 306 306 306 306 306 305 306 308 308 308 308 307 306
183 181 178 179 139 110 122 129 124 124 154 252 249 176 176 182 186 187 187 187 189 187 191 196 190 198 203 195 201 226 227 285 266 250 251 278 304 295 296 290 291 315 317 318 314 316 318 317 312 316 321 333 327 333 329 344 325 308 305 303 300 302 304 305 304 304 304 304 307 309 309 310 309 307
179 181 176 162 129 140 137 143 145 150 163 163 23 47 229 4 204 189 185 191 188 190 200 191 199 209 200 191 198 219 215 199 236 271 289 291 296 309 317 318 319 129 327 319 314 312 320 316 314 319 318 323 325 330 329 318 301 293 291 295 298 300 303 303 302 301 301 303 306 308 309 311 311 310
179 178 176 168 167 177 178 167 160 161 158 152 148 135 80 57 38 30 21 189 181 200 211 194 204 208 203 194 203 217 212 221 219 230 260 271 292 302 307 309 312 332 324 316 312 313 317 313 315 314 315 317 326 324 306 292 285 282 284 290 296 298 300 300 299 299 300 302 304 306 309 311 313 314
178 176 175 171 172 172 158 169 176 176 166 148 143 131 119 64 26 10 21 11 9 259 225 215 203 215 198 205 207 210 227 294 280 281 267 277 302 307 301 311 318 311 319 301 306 317 315 316 319 315 317 319 322 318 322 329 306 293 288 286 288 294 296 296 296 296 297 299 302 304 306 310 315 317
178 177 175 173 174 171 172 184 180 179 177 173 170 180 192 195 165 132 36 313 294 300 285 226 217 195 219 220 205 161 191 234 250 271 291 310 304 308 310 308 297 293 283 279 306 302 315 325 318 314 321 323 318 315 327 310 295 286 283 281 282 288 292 292 291 291 293 295 299 303 304 310 318 319
179 177 178 177 178 173 178 187 183 180 176 174 178 184 188 194 191 197 201 208 217 222 240 252 234 205 200 220 205 190 199 221 255 296 307 309 301 295 285 275 267 272 298 300 288 303 319 322 314 317 321 322 319 321 308 303 312 301 288 283 282 284 288 287 286 286 288 293 299 304 303 311 320 319
179 176 178 179 180 179 183 173 174 185 173 176 179 182 186 191 190 199 147 117 191 305 236 242 273 28 44 35 35 25 0 293 264 261 256 256 260 266 279 296 312 302 318 310 295 304 318 321 318 319 320 322 320 318 319 325 325 314 300 289 284 282 282 283 281 282 286 292 301 304 304 318 325 322
177 179 179 182 184 179 187 152 167 174 178 179 183 184 185 188 190 199 154 109 118 282 336 3 25 42 38 39 47 62 49 352 338 298 286 273 279 297 304 307 312 318 318 315 356 326 314 326 323 318 319 323 315 317 322 326 320 310 297 284 279 276 275 279 282 285 288 292 302 301 310 326 334 321
181 180 179 182 185 181 176 149 168 166 184 191 187 187 185 185 194 202 190 172 174 131 263 332 324 302 290 288 249 225 194 176 230 252 264 297 309 294 296 307 315 312 303 27 21 326 319 322 322 320 321 314 320 323 326 326 326 321 316 328 322 307 303 298 296 292 288 289 282 299 316 347 338 335
184 177 172 186 185 187 145 155 160 168 184 202 189 189 188 190 197 202 196 191 185 186 199 209 209 224 211 225 233 219 194 189 202 236 256 272 279 291 300 305 304 304 316 43 22 330 324 321 324 324 323 322 321 326 329 327 327 328 335 331 328 340 321 308 302 300 303 270 179 261 355 359 340 340
185 176 177 176 188 150 141 159 162 173 193 203 188 189 195 194 198 195 200 196 195 189 203 210 209 221 222 221 222 229 191 183 205 222 239 255 269 281 289 295 302 304 313 352 31 329 314 315 315 328 325 321 324 329 328 328 328 334 334 331 332 337 329 331 334 336 345 5 165 48 38 3 346 340
183 179 181 181 165 146 154 159 171 176 195 222 202 192 198 201 169 186 198 183 206 209 202 213 216 215 220 221 223 222 225 219 207 213 229 244 255 268 283 291 297 300 305 352 58 318 313 315 315 324 321 320 320 322 329 325 331 334 334 337 338 342 340 337 335 342 347 344 151 88 58 20 351 335
186 186 177 182 154 155 158 165 171 181 192 212 237 201 141 91 104 188 210 180 188 213 216 215 217 220 221 221 221 225 229 228 223 219 220 224 238 253 268 279 289 298 300 352 141 297 303 310 318 315 318 322 322 323 323 328 333 335 333 343 341 340 340 336 335 336 344 346 347 52 67 37 355 336
184 183 179 151 144 157 159 167 176 181 191 196 219 141 115 116 96 156 212 209 204 207 215 222 226 224 224 225 225 223 230 230 227 225 222 233 240 251 261 268 273 282 290 297 296 298 295 299 311 315 320 319 319 322 326 333 333 332 340 346 339 343 342 338 338 338 341 345 343 355 62 65 2 341
184 171 179 146 151 156 163 170 177 184 184 195 209 163 139 128 167 211 216 210 212 212 215 218 226 228 226 230 230 227 229 239 235 229 229 254 261 266 268 264 263 261 274 286 295 297 297 297 305 316 317 319 321 328 332 330 329 334 343 343 341 345 340 342 339 338 342 347 344 346 4 10 3 349
179 152 127 133 154 159 164 170 173 179 189 206 203 174 148 162 208 216 229 219 209 216 219 223 226 229 230 233 237 246 248 248 258 250 251 252 257 264 263 264 267 272 269 252 252 272 294 302 301 312 313 315 321 329 332 331 329 337 347 341 343 343 343 345 341 341 345 348 348 347 12 58 10 3
122 127 135 148 153 162 166 163 170 183 186 208 203 146 170 204 220 221 221 229 222 223 222 223 230 232 232 229 224 228 234 240 244 245 252 262 269 271 267 268 273 275 282 288 290 290 298 309 298 306 307 311 320 323 327 325 328 340 344 345 341 332 346 344 343 343 344 350 348 350 4 84 38 9
135 134 136 152 158 158 167 167 162 180 162 171 178 190 199 216 221 220 224 226 227 227 232 229 228 229 233 236 227 214 219 235 241 242 252 259 268 272 275 279 283 281 286 292 291 282 293 306 303 303 304 304 302 301 314 323 330 337 342 344 341 345 345 343 343 342 343 344 349 351 356 25 48 32
159 136 122 128 148 142 156 177 181 194 193 194 190 202 204 212 219 226 234 243 239 234 232 240 238 236 231 233 229 227 233 237 236 236 245 254 267 272 277 276 281 291 292 287 288 295 243 260 282 305 303 302 299 287 294 316 330 338 338 341 339 339 342 345 341 340 339 337 348 354 358 16 30 21
149 143 153 160 161 169 170 181 192 194 202 203 201 203 208 210 213 214 215 217 222 227 229 232 231 231 231 234 235 237 241 239 243 249 254 251 258 265 270 276 284 283 292 306 310 302 299 305 308 298 296 300 303 297 267 309 336 339 339 339 340 339 344 343 341 337 336 338 342 350 357 10 42 30
158 164 170 172 173 179 185 189 199 201 204 205 204 203 205 214 214 211 210 216 219 220 226 229 226 230 236 239 235 235 235 235 237 240 241 262 266 266 270 278 282 288 291 297 308 312 311 311 312 304 302 306 307 327 258 337 338 340 338 339 340 339 342 341 338 337 339 341 342 342 349 0 27 33
172 171 176 182 185 188 192 196 199 204 205 205 205 205 198 207 211 211 217 215 215 216 216 222 232 228 227 236 238 240 239 243 244 256 247 238 251 259 268 274 278 291 303 304 302 303 310 317 318 317 317 325 328 353 115 8 340 339 337 339 341 338 340 340 337 339 340 342 347 347 349 357 7 25
173 180 184 190 194 191 197 198 202 204 207 202 205 205 204 204 211 211 218 215 214 213 216 216 220 228 231 234 239 241 244 248 252 258 263 263 261 265 273 280 297 302 303 300 300 305 311 312 317 322 325 330 334 330 353 179 313 336 340 337 340 342 338 337 340 340 343 346 348 350 351 359 8 12
171 189 195 195 197 196 201 200 202 204 208 208 207 209 208 208 210 213 213 209 215 217 216 217 218 220 224 231 240 244 250 247 251 255 259 262 264 264 260 262 258 268 274 283 297 305 302 307 312 315 328 329 331 330 334 354 251 243 345 338 339 346 338 340 340 344 349 348 349 352 355 356 5 11
186 192 203 203 202 201 201 205 203 207 209 212 212 213 214 214 215 212 208 202 208 214 218 219 221 221 229 227 229 226 235 242 244 245 246 253 264 268 274 279 278 280 295 306 299 300 302 296 307 343 333 333 330 330 331 334 331 212 203 329 339 346 345 343 345 348 347 351 347 347 351 0 9 10
195 203 204 209 205 208 203 206 209 209 211 211 212 213 213 220 221 212 204 206 210 214 217 218 220 220 224 226 213 217 239 243 240 238 240 247 251 252 251 261 275 286 291 293 298 303 295 293 325 341 340 335 332 331 316 316 324 328 150 106 346 352 357 349 346 346 350 347 344 346 353 356 12 15
203 203 193 208 210 209 211 214 216 217 213 212 213 213 214 220 223 217 213 203 211 213 214 212 213 212 212 208 202 220 239 241 239 238 237 247 250 257 266 274 280 286 284 283 289 288 291 293 344 351 334 323 314 299 303 287 275 295 3 173 239 342 11 353 349 348 352 349 341 346 351 356 9 12
198 199 206 207 207 206 217 217 217 216 213 211 212 212 217 217 218 219 219 212 203 205 205 203 202 206 205 210 214 223 234 236 233 239 244 247 254 264 274 273 264 266 271 273 275 285 281 331 72 96 273 300 293 285 287 322 340 343 342 352 182 246 210 215 342 356 359 350 350 350 353 360 3 12
195 200 201 204 207 204 208 217 223 218 213 208 209 209 212 221 220 217 217 219 209 196 200 198 201 203 210 213 219 221 228 235 240 239 239 244 246 240 225 232 254 258 263 272 272 270 280 80 141 199 251 269 291 321 327 341 336 334 346 342 1 196 194 227 103 69 21 20 9 0 356 359 6 20
195 200 202 205 203 207 209 212 217 215 213 210 212 218 217 212 215 210 218 213 206 197 203 210 208 211 213 215 219 221 224 225 229 234 243 248 250 257 248 227 236 251 257 260 269 280 294 289 288 306 323 305 328 329 328 343 318 332 337 349 349 341 338 169 143 146 166 114 79 37 14 355 7 23
194 199 203 195 200 201 215 210 205 214 216 215 213 212 212 212 213 213 208 212 211 207 206 213 214 213 215 220 220 222 227 232 226 226 227 232 238 244 252 255 241 242 253 266 266 266 276 279 274 276 301 310 312 321 330 324 324 338 334 339 334 334 345 354 92 160 162 199 120 122 85 354 319 277
174 192 199 202 202 194 207 208 207 213 213 210 206 211 212 212 211 207 208 208 213 213 213 213 216 217 216 218 220 224 227 226 232 230 233 233 234 232 236 242 250 240 240 249 264 267 262 269 291 310 298 308 325 313 300 304 309 303 306 337 335 344 343 355 349 353 354 58 111 134 155 187 219 245